Powrót do katalogu

ARIANE 44L DEB

LostHEO
NORAD 33589·DEBRIS·🇫🇷 France

Wystrzelony Jan 15, 1991 z Guiana Space Centre

Loading…

Następne Przeloty (najbliższe 24 godziny)

TLE

NieaktualneSource: Space-Track

Epoka: Jun 5, 2019, 06:49 UTC

1 33589U 91003S   19156.28428763 -.00000001  00000-0  39291-2 0  9991
2 33589   7.5114   0.3168 6752729 232.4889  45.0370  2.63585777124556

Śledź ARIANE 44L DEB w czasie rzeczywistym z AllMySat

Download on the App Store